Regional Weather Roundup
Issued by NWS

Home | Current Version | Previous Version | Text Only | Print | Product List | Glossary Off
Versions: 1 2 3 4 5 6 7 8 9 10 11 12 13 14 15 16 17 18 19 20 21 22 23 24 25 26 27 28 29 30 31 32 33 34 35 36 37 38 39 40 41 42 43 44 45 46 47 48 49 50

273
ASUS44 KMEG 192310
RWRTN
TENNESSEE HOURLY STATE WEATHER ROUNDUP
NATIONAL WEATHER SERVICE MEMPHIS TN
500 PM CST SUN NOV 19 2017

TNZ002-004-019-021-049-052-054-088>092-200000-
WEST TENNESSEE

CITY           SKY/WX    TMP DP  RH WIND       PRES   REMARKS
MEMPHIS INTL   CLEAR     47  25  42 N7        30.22R
NWS MEMPHIS      N/A     45 N/A N/A MISG        N/A
JACKSON        CLEAR     42  26  53 NW5       30.22R
DYERSBURG      CLEAR     43  23  45 NW5       30.23S
COVINGTON      CLEAR     41  27  56 N5        30.23F
UNION CITY     CLEAR     39  25  56 NW3       30.21S
BOLIVAR        CLEAR     43  27  52 NW5       30.21R
HUNTINGDON     CLEAR     41  25  52 CALM      30.19F
LEXINGTON      CLEAR     43  25  49 NW7       30.20R
SELMER         CLEAR     43  27  52 NW3       30.20R
SAVANNAH       CLEAR     45  27  49 NW6       30.19R
$$

TNZ008-025-027-028-033-062-065-066-200000-
NORTH MIDDLE TENNESSEE

CITY           SKY/WX    TMP DP  RH WIND       PRES   REMARKS
NASHVILLE      CLEAR     41  21  44 N8        30.18R
PORTLAND       CLEAR     37  21  52 NW3       30.16R
CLARKSVILLE    CLEAR     40  21  46 NW6       30.18S
SMYRNA         CLEAR     40  24  53 N7        30.19R
COOKEVILLE     CLEAR     39  25  56 VRB5      30.14S
GALLATIN       CLEAR     39  23  52 CALM      30.20R
CROSSVILLE     CLEAR     38  25  59 NW7       30.11R WCI  33
$$

TNZ061-075-076-078-094-096-097-200000-
SOUTH MIDDLE TENNESSEE

CITY           SKY/WX    TMP DP  RH WIND       PRES   REMARKS
FAYETTEVILLE   CLEAR     43  27  52 NW7       30.14R
TULLAHOMA      CLEAR     41  27  56 NW8       30.14R
WINCHESTER     CLEAR     39  28  65 N5        30.15R
MCMINNVILLE    CLEAR     41  21  45 NW5       30.15R
COLUMBIA       CLEAR     43  21  42 CALM      30.16R
SHELBYVILLE    CLEAR     39  25  56 NW7       30.16R WCI  34
$$

TNZ017-018-042-046-047-200000-
NORTHEAST TENNESSEE

CITY           SKY/WX    TMP DP  RH WIND       PRES   REMARKS
TRI CITIES     MOCLDY    40  29  64 W7        30.06R
ELIZABETHTON   MOCLDY    39  27  60 W5        30.06R
$$

TNZ012-013-036-069-073-074-200000-
CENTRAL EAST TENNESSEE

CITY           SKY/WX    TMP DP  RH WIND       PRES   REMARKS
KNOXVILLE      PTCLDY    43  29  57 NW7       30.11R
OAK RIDGE      CLEAR     42  29  59 CALM      30.13R
DOWNTOWN KNOXV PTCLDY    45  30  57 W5        30.13R
GATLINBURG     CLOUDY    45  30  57 W5        30.11R
MORRISTOWN     PTCLDY    41  28  60 NW6G12    30.09R
JACKSBORO      PTCLDY    41  27  56 VRB6G12   30.16R
$$

TNZ083-085-099-200000-
SOUTHEAST TENNESSEE

CITY           SKY/WX    TMP DP  RH WIND       PRES   REMARKS
CHATTANOOGA    CLEAR     45  27  49 NW10      30.13R
$$

SKY/WX REPORTED AS FAIR MEANS FEW OR NO CLOUDS BELOW
12 THOUSAND FEET.





USA.gov is the U.S. government's official web portal to all federal, state and local government web resources and services.